• în Republica Moldova
  • Lista ţărilor
  • Pe 7 zile
  • Temperatura apei
  • Hartă satelitară
  • Meteo pe hartă
  • Widget-uri
  • user-avatar
    Intrare

    Meteo pe oră la Shaki

    Astăzi, 28 Martie, Marţi

    Timp Temperatura Precipitaţii Vânt Presiune Umiditate
    00:00 +10°C° 0 mm 2 m/s 730 mmHg 61%
    01:00 +10°C° 0 mm 2 m/s 730 mmHg 62%
    02:00 +9°C° 0 mm 2 m/s 730 mmHg 63%
    03:00 +10°C° 0 mm 1 m/s 730 mmHg 64%
    04:00 +9°C° 0,1 mm 2 m/s 731 mmHg 67%
    05:00 +8°C° 0,1 mm 2 m/s 731 mmHg 71%
    06:00 +8°C° 0,1 mm 3 m/s 732 mmHg 74%
    07:00 +9°C° 0,2 mm 3 m/s 733 mmHg 69%
    08:00 +10°C° 0,2 mm 4 m/s 733 mmHg 64%
    09:00 +10°C° 0 mm 4 m/s 734 mmHg 67%
    10:00 +10°C° 0,2 mm 4 m/s 734 mmHg 61%
    11:00 +10°C° 0,2 mm 5 m/s 734 mmHg 55%
    12:00 +12°C° 0,2 mm 5 m/s 735 mmHg 49%
    13:00 +12°C° 0 mm 5 m/s 734 mmHg 46%
    14:00 +13°C° 0 mm 5 m/s 734 mmHg 43%
    15:00 +13°C° 0 mm 4 m/s 734 mmHg 40%
    16:00 +11°C° 0 mm 4 m/s 734 mmHg 43%
    17:00 +10°C° 0 mm 3 m/s 735 mmHg 46%
    18:00 +8°C° 0 mm 2 m/s 735 mmHg 49%
    19:00 +7°C° 0 mm 2 m/s 735 mmHg 48%
    20:00 +7°C° 0 mm 2 m/s 735 mmHg 48%
    21:00 +6°C° 0 mm 2 m/s 735 mmHg 47%
    22:00 +5°C° 0 mm 3 m/s 735 mmHg 46%
    23:00 +5°C° 0 mm 3 m/s 735 mmHg 46%

    Mâine, 29 Martie, Miercuri

    Timp Temperatura Precipitaţii Vânt Presiune Umiditate
    00:00 +4°C° 0 mm 3 m/s 735 mmHg 45%
    01:00 +4°C° 0 mm 4 m/s 735 mmHg 44%
    02:00 +4°C° 0 mm 4 m/s 735 mmHg 42%
    03:00 +4°C° 0 mm 4 m/s 735 mmHg 41%
    04:00 +4°C° 0 mm 4 m/s 735 mmHg 41%
    05:00 +4°C° 0 mm 4 m/s 735 mmHg 41%
    06:00 +4°C° 0 mm 4 m/s 735 mmHg 41%
    07:00 +6°C° 0 mm 4 m/s 735 mmHg 38%
    08:00 +9°C° 0 mm 5 m/s 735 mmHg 35%
    09:00 +12°C° 0 mm 5 m/s 735 mmHg 32%
    10:00 +13°C° 0 mm 5 m/s 735 mmHg 30%
    11:00 +14°C° 0 mm 5 m/s 735 mmHg 29%
    12:00 +15°C° 0 mm 6 m/s 735 mmHg 28%
    13:00 +16°C° 0 mm 5 m/s 735 mmHg 28%
    14:00 +16°C° 0 mm 5 m/s 735 mmHg 29%
    15:00 +16°C° 0 mm 5 m/s 735 mmHg 29%
    16:00 +14°C° 0 mm 4 m/s 736 mmHg 33%
    17:00 +12°C° 0 mm 3 m/s 736 mmHg 37%
    18:00 +10°C° 0 mm 2 m/s 737 mmHg 41%
    19:00 +9°C° 0 mm 2 m/s 738 mmHg 43%
    20:00 +8°C° 0 mm 2 m/s 739 mmHg 44%
    21:00 +8°C° 0 mm 1 m/s 739 mmHg 45%
    22:00 +6°C° 0 mm 2 m/s 740 mmHg 55%
    23:00 +6°C° 0 mm 2 m/s 740 mmHg 64%

    Poimâine, 30 Martie, Joi

    Timp Temperatura Precipitaţii Vânt Presiune Umiditate
    00:00 +4°C° 0 mm 3 m/s 740 mmHg 73%
    01:00 +5°C° 0 mm 2 m/s 740 mmHg 77%
    02:00 +4°C° 0 mm 2 m/s 740 mmHg 81%
    03:00 +5°C° 0 mm 1 m/s 740 mmHg 85%
    04:00 +5°C° 0 mm 1 m/s 740 mmHg 85%
    05:00 +4°C° 0 mm 1 m/s 740 mmHg 86%
    06:00 +4°C° 0 mm 1 m/s 740 mmHg 87%
    07:00 +7°C° 0 mm 1 m/s 740 mmHg 77%
    08:00 +9°C° 0 mm 1 m/s 740 mmHg 67%
    09:00 +11°C° 0 mm 1 m/s 739 mmHg 57%
    10:00 +13°C° 0 mm 1 m/s 739 mmHg 52%
    11:00 +14°C° 0 mm 1 m/s 738 mmHg 47%
    12:00 +15°C° 0 mm 1 m/s 737 mmHg 42%
    13:00 +16°C° 0 mm 1 m/s 736 mmHg 40%
    14:00 +16°C° 0 mm 1 m/s 735 mmHg 38%
    15:00 +18°C° 0 mm 1 m/s 735 mmHg 35%
    16:00 +15°C° 0 mm 1 m/s 735 mmHg 40%
    17:00 +13°C° 0 mm 1 m/s 734 mmHg 45%
    18:00 +11°C° 0 mm 1 m/s 734 mmHg 50%
    19:00 +10°C° 0 mm 1 m/s 735 mmHg 48%
    20:00 +10°C° 0 mm 1 m/s 735 mmHg 45%
    21:00 +8°C° 0 mm 2 m/s 735 mmHg 43%
    22:00 +8°C° 0 mm 2 m/s 735 mmHg 41%
    23:00 +8°C° 0 mm 2 m/s 735 mmHg 39%

    31 Martie, Vineri

    Timp Temperatura Precipitaţii Vânt Presiune Umiditate
    00:00 +8°C° 0 mm 2 m/s 735 mmHg 37%
    01:00 +8°C° 0 mm 2 m/s 735 mmHg 39%
    02:00 +8°C° 0 mm 2 m/s 735 mmHg 41%
    03:00 +7°C° 0 mm 3 m/s 735 mmHg 42%
    04:00 +7°C° 0 mm 2 m/s 735 mmHg 43%
    05:00 +7°C° 0 mm 2 m/s 735 mmHg 45%
    06:00 +7°C° 0 mm 2 m/s 735 mmHg 46%
    07:00 +10°C° 0 mm 2 m/s 736 mmHg 41%
    08:00 +13°C° 0 mm 2 m/s 736 mmHg 35%
    09:00 +16°C° 0 mm 2 m/s 736 mmHg 30%
    10:00 +17°C° 0 mm 2 m/s 736 mmHg 28%
    11:00 +18°C° 0 mm 2 m/s 737 mmHg 26%
    12:00 +19°C° 0 mm 2 m/s 737 mmHg 25%
    13:00 +19°C° 0 mm 2 m/s 737 mmHg 25%
    14:00 +19°C° 0 mm 2 m/s 737 mmHg 26%
    15:00 +18°C° 0 mm 2 m/s 737 mmHg 26%
    16:00 +17°C° 0 mm 2 m/s 737 mmHg 33%
    17:00 +15°C° 0 mm 2 m/s 738 mmHg 39%
    18:00 +13°C° 0 mm 2 m/s 738 mmHg 45%
    19:00 +11°C° 0,4 mm 3 m/s 739 mmHg 54%
    20:00 +10°C° 0,4 mm 3 m/s 740 mmHg 63%
    21:00 +8°C° 0,4 mm 4 m/s 741 mmHg 72%
    22:00 +9°C° 0,6 mm 3 m/s 741 mmHg 76%
    23:00 +8°C° 0,6 mm 3 m/s 741 mmHg 80%

    1 Aprilie, Sâmbătă

    Timp Temperatura Precipitaţii Vânt Presiune Umiditate
    00:00 +7°C° 0,6 mm 3 m/s 741 mmHg 84%
    01:00 +7°C° 0,2 mm 3 m/s 741 mmHg 85%
    02:00 +5°C° 0,2 mm 4 m/s 741 mmHg 86%
    03:00 +5°C° 0,2 mm 4 m/s 741 mmHg 87%
    04:00 +4°C° 0,1 mm 4 m/s 742 mmHg 86%
    05:00 +4°C° 0,1 mm 4 m/s 742 mmHg 86%
    06:00 +4°C° 0,1 mm 4 m/s 742 mmHg 86%
    07:00 +4°C° 0,2 mm 4 m/s 742 mmHg 83%
    08:00 +5°C° 0,2 mm 5 m/s 743 mmHg 80%
    09:00 +5°C° 0,2 mm 5 m/s 743 mmHg 77%
    10:00 +6°C° 0,1 mm 5 m/s 743 mmHg 75%
    11:00 +6°C° 0,1 mm 5 m/s 743 mmHg 74%
    12:00 +6°C° 0,1 mm 5 m/s 742 mmHg 72%
    13:00 +6°C° 0,1 mm 5 m/s 742 mmHg 73%
    14:00 +6°C° 0,1 mm 4 m/s 742 mmHg 73%
    15:00 +6°C° 0,1 mm 4 m/s 742 mmHg 74%
    16:00 +5°C° 0,1 mm 4 m/s 742 mmHg 77%
    17:00 +5°C° 0,1 mm 3 m/s 742 mmHg 81%
    18:00 +4°C° 0,1 mm 3 m/s 742 mmHg 85%
    19:00 +3°C° 0 mm 3 m/s 742 mmHg 86%
    20:00 +4°C° 0 mm 2 m/s 742 mmHg 88%
    21:00 +3°C° 0 mm 2 m/s 742 mmHg 90%
    22:00 +3°C° 0 mm 2 m/s 742 mmHg 90%
    23:00 +3°C° 0 mm 2 m/s 742 mmHg 90%

    2 Aprilie, Duminică

    Timp Temperatura Precipitaţii Vânt Presiune Umiditate
    00:00 +3°C° 0 mm 2 m/s 741 mmHg 90%
    01:00 +4°C° 0 mm 1 m/s 741 mmHg 90%
    02:00 +3°C° 0 mm 1 m/s 741 mmHg 90%
    03:00 +3°C° 0 mm 1 m/s 741 mmHg 90%
    04:00 +3°C° 0 mm 1 m/s 741 mmHg 89%
    05:00 +3°C° 0 mm 1 m/s 741 mmHg 89%
    06:00 +3°C° 0 mm 1 m/s 741 mmHg 88%
    07:00 +4°C° 0 mm 1 m/s 741 mmHg 82%
    08:00 +5°C° 0 mm 2 m/s 742 mmHg 76%
    09:00 +6°C° 0 mm 2 m/s 742 mmHg 70%
    10:00 +8°C° 0 mm 2 m/s 741 mmHg 67%
    11:00 +9°C° 0 mm 2 m/s 741 mmHg 64%
    12:00 +10°C° 0 mm 2 m/s 741 mmHg 61%
    13:00 +10°C° 0 mm 3 m/s 741 mmHg 61%
    14:00 +10°C° 0 mm 3 m/s 740 mmHg 60%
    15:00 +11°C° 0 mm 3 m/s 740 mmHg 60%
    16:00 +10°C° 0 mm 3 m/s 740 mmHg 67%
    17:00 +8°C° 0 mm 2 m/s 741 mmHg 74%
    18:00 +7°C° 0 mm 2 m/s 741 mmHg 81%
    19:00 +6°C° 0 mm 2 m/s 741 mmHg 84%
    20:00 +5°C° 0 mm 2 m/s 741 mmHg 86%
    21:00 +4°C° 0 mm 2 m/s 742 mmHg 89%
    22:00 +3°C° 0 mm 2 m/s 742 mmHg 90%
    23:00 +4°C° 0 mm 1 m/s 742 mmHg 90%
    Arată mai mult